| time (UTC) | temp F | wind direction | speed MPH | gust MPH | rain 1hr in | rain 24hr in | rain mn in | humidity % | barometer mb |
| 20260503213111 | 55 | 273 | 6.0 | 14.0 | 0.00 | 0.00 | 0.00 | 63 | 1009.9 |
| 20260503212546 | 56 | 242 | 3.0 | 15.0 | 0.00 | 0.00 | 0.00 | 59 | 1009.8 |
| 20260503212021 | 56 | 254 | 7.0 | 15.0 | 0.00 | 0.00 | 0.00 | 58 | 1009.6 |
| 20260503211621 | 56 | 241 | 6.0 | 13.0 | 0.00 | 0.00 | 0.00 | 58 | 1009.4 |
| 20260503211044 | 56 | 275 | 4.0 | 14.0 | 0.00 | 0.00 | 0.00 | 58 | 1009.3 |
| 20260503210523 | 56 | 251 | 4.0 | 14.0 | 0.00 | 0.00 | 0.00 | 58 | 1009.4 |
| 20260503210108 | 55 | 245 | 3.0 | 9.0 | 0.00 | 0.00 | 0.00 | 59 | 1009.5 |
| 20260503205530 | 55 | 238 | 3.0 | 10.0 | 0.00 | 0.00 | 0.00 | 59 | 1009.7 |
| 20260503205009 | 54 | 222 | 3.0 | 14.0 | 0.00 | 0.00 | 0.00 | 59 | 1009.7 |
| 20260503204554 | 54 | 248 | 7.0 | 14.0 | 0.00 | 0.00 | 0.00 | 58 | 1009.7 |
| 20260503204033 | 54 | 246 | 5.0 | 11.0 | 0.00 | 0.00 | 0.00 | 58 | 1009.7 |
| 20260503203515 | 54 | 158 | 4.0 | 10.0 | 0.00 | 0.00 | 0.00 | 58 | 1009.8 |
| 20260503203113 | 55 | 237 | 2.0 | 10.0 | 0.00 | 0.00 | 0.00 | 58 | 1009.7 |
| 20260503202540 | 55 | 244 | 3.0 | 10.0 | 0.00 | 0.00 | 0.00 | 59 | 1009.8 |
| 20260503202017 | 55 | 235 | 3.0 | 8.0 | 0.00 | 0.00 | 0.00 | 58 | 1009.8 |
| 20260503201602 | 55 | 244 | 3.0 | 9.0 | 0.00 | 0.00 | 0.00 | 59 | 1009.9 |
| 20260503201041 | 55 | 251 | 4.0 | 19.0 | 0.00 | 0.00 | 0.00 | 57 | 1010.0 |
| 20260503200521 | 55 | 246 | 6.0 | 19.0 | 0.00 | 0.00 | 0.00 | 57 | 1010.0 |
| 20260503200105 | 55 | 252 | 3.0 | 8.0 | 0.00 | 0.00 | 0.00 | 57 | 1010.0 |
| 20260503195527 | 56 | 248 | 4.0 | 11.0 | 0.00 | 0.00 | 0.00 | 57 | 1010.0 |
| 20260503195007 | 56 | 229 | 4.0 | 13.0 | 0.00 | 0.00 | 0.00 | 57 | 1010.0 |
| 20260503194554 | 56 | 243 | 3.0 | 13.0 | 0.00 | 0.00 | 0.00 | 57 | 1010.1 |
| 20260503194029 | 56 | 262 | 4.0 | 12.0 | 0.00 | 0.00 | 0.00 | 57 | 1010.1 |
| 20260503193510 | 55 | 231 | 5.0 | 10.0 | 0.00 | 0.00 | 0.00 | 55 | 1010.3 |
| 20260503193054 | 56 | 235 | 5.0 | 10.0 | 0.00 | 0.00 | 0.00 | 55 | 1010.5 |
| 20260503192533 | 56 | 256 | 4.0 | 10.0 | 0.00 | 0.00 | 0.00 | 54 | 1010.5 |
| 20260503192013 | 57 | 241 | 4.0 | 10.0 | 0.00 | 0.00 | 0.00 | 52 | 1010.6 |
| 20260503191604 | 57 | 261 | 4.0 | 9.0 | 0.00 | 0.00 | 0.00 | 53 | 1010.7 |
| 20260503191041 | 57 | 248 | 3.0 | 11.0 | 0.00 | 0.00 | 0.00 | 54 | 1010.7 |
| 20260503190520 | 57 | 185 | 4.0 | 11.0 | 0.00 | 0.00 | 0.00 | 54 | 1010.9 |
| 20260503185521 | 56 | 207 | 3.0 | 10.0 | 0.00 | 0.00 | 0.00 | 54 | 1011.1 |
| 20260503185002 | 55 | 270 | 3.0 | 12.0 | 0.00 | 0.00 | 0.00 | 54 | 1011.1 |
| 20260503184545 | 55 | 250 | 5.0 | 12.0 | 0.00 | 0.00 | 0.00 | 54 | 1011.2 |
| 20260503184025 | 55 | 238 | 4.0 | 11.0 | 0.00 | 0.00 | 0.00 | 54 | 1011.3 |
| 20260503183505 | 55 | 219 | 2.0 | 9.0 | 0.00 | 0.00 | 0.00 | 54 | 1011.4 |
| 20260503183049 | 55 | 240 | 3.0 | 15.0 | 0.00 | 0.00 | 0.00 | 52 | 1011.5 |
| 20260503182529 | 55 | 229 | 4.0 | 15.0 | 0.00 | 0.00 | 0.00 | 51 | 1011.5 |
| 20260503182009 | 55 | 293 | 4.0 | 10.0 | 0.00 | 0.00 | 0.00 | 52 | 1011.7 |
| 20260503181603 | 55 | 269 | 2.0 | 14.0 | 0.00 | 0.00 | 0.00 | 52 | 1011.8 |
| 20260503181034 | 54 | 265 | 5.0 | 14.0 | 0.00 | 0.00 | 0.00 | 51 | 1011.8 |
| 20260503180512 | 55 | 163 | 7.0 | 13.0 | 0.00 | 0.00 | 0.00 | 49 | 1011.8 |
| 20260503180106 | 55 | 230 | 4.0 | 13.0 | 0.00 | 0.00 | 0.00 | 51 | 1011.8 |
| 20260503175515 | 54 | 208 | 5.0 | 15.0 | 0.00 | 0.00 | 0.00 | 50 | 1012.0 |
| 20260503175057 | 54 | 247 | 7.0 | 16.0 | 0.00 | 0.00 | 0.00 | 49 | 1012.1 |
| 20260503174538 | 54 | 184 | 5.0 | 16.0 | 0.00 | 0.00 | 0.00 | 51 | 1012.1 |
| 20260503174020 | 54 | 224 | 3.0 | 14.0 | 0.00 | 0.00 | 0.00 | 54 | 1012.2 |
| 20260503173601 | 54 | 219 | 5.0 | 13.0 | 0.00 | 0.00 | 0.00 | 55 | 1012.4 |
| 20260503173053 | 54 | 216 | 5.0 | 13.0 | 0.00 | 0.00 | 0.00 | 56 | 1012.4 |
| 20260503172521 | 54 | 256 | 2.0 | 11.0 | 0.00 | 0.00 | 0.00 | 58 | 1012.4 |
| 20260503172001 | 53 | 244 | 4.0 | 18.0 | 0.00 | 0.00 | 0.00 | 57 | 1012.5 |
| 20260503171545 | 53 | 254 | 7.0 | 18.0 | 0.00 | 0.00 | 0.00 | 56 | 1012.5 |
| 20260503171025 | 52 | 243 | 5.0 | 10.0 | 0.00 | 0.00 | 0.00 | 54 | 1012.7 |
| 20260503170506 | 52 | 243 | 5.0 | 10.0 | 0.00 | 0.00 | 0.00 | 51 | 1012.7 |
| 20260503150553 | 50 | 304 | 4.0 | 11.0 | 0.00 | 0.00 | 0.00 | 48 | 1014.3 |
| 20260503131101 | 46 | 256 | 3.0 | 8.0 | 0.00 | 0.00 | 0.00 | 65 | 1014.7 |
| 20260503130542 | 46 | 248 | 2.0 | 8.0 | 0.00 | 0.00 | 0.00 | 67 | 1014.6 |
| 20260503120119 | 43 | 240 | 3.0 | 7.0 | 0.00 | 0.00 | 0.00 | 79 | 1014.7 |
| 20260503110532 | 35 | 236 | 0.0 | 0.0 | 0.00 | 0.00 | 0.00 | 83 | 1014.7 |
| 20260503110116 | 35 | 236 | 0.0 | 0.0 | 0.00 | 0.00 | 0.00 | 83 | 1014.7 |
| 20260503100113 | 34 | 236 | 0.0 | 0.0 | 0.00 | 0.00 | 0.00 | 80 | 1014.8 |
| 20260503090107 | 34 | 236 | 0.0 | 0.0 | 0.00 | 0.00 | 0.00 | 75 | 1015.2 |
| 20260503081558 | 35 | 236 | 0.0 | 0.0 | 0.00 | 0.00 | 0.00 | 71 | 1015.5 |
| 20260503081037 | 35 | 236 | 0.0 | 0.0 | 0.00 | 0.00 | 0.00 | 72 | 1015.4 |
| 20260503080519 | 35 | 236 | 0.0 | 0.0 | 0.00 | 0.00 | 0.00 | 72 | 1015.4 |
| 20260503072531 | 38 | 236 | 0.0 | 0.0 | 0.00 | 0.00 | 0.00 | 66 | 1015.4 |
| 20260503072011 | 38 | 236 | 0.0 | 0.0 | 0.00 | 0.00 | 0.00 | 65 | 1015.4 |
| 20260503071603 | 38 | 236 | 0.0 | 2.0 | 0.00 | 0.00 | 0.00 | 65 | 1015.4 |
| 20260503071035 | 38 | 236 | 0.0 | 2.0 | 0.00 | 0.00 | 0.00 | 64 | 1015.4 |
| 20260503070519 | 38 | 236 | 0.0 | 2.0 | 0.00 | 0.00 | 0.00 | 64 | 1015.5 |
| 20260503070105 | 38 | 236 | 0.0 | 2.0 | 0.00 | 0.00 | 0.00 | 64 | 1015.5 |
| 20260503060107 | 40 | 239 | 1.0 | 5.0 | 0.00 | 0.00 | 0.00 | 68 | 1015.6 |
| 20260503055058 | 40 | 239 | 0.0 | 3.0 | 0.00 | 0.00 | 0.00 | 69 | 1015.6 |
| 20260503054538 | 40 | 239 | 1.0 | 4.0 | 0.00 | 0.00 | 0.00 | 69 | 1015.6 |
| 20260503054017 | 40 | 239 | 0.0 | 2.0 | 0.00 | 0.00 | 0.00 | 69 | 1015.6 |
| 20260503053603 | 40 | 239 | 0.0 | 2.0 | 0.00 | 0.00 | 0.00 | 68 | 1015.5 |
| 20260503053044 | 40 | 239 | 0.0 | 4.0 | 0.00 | 0.00 | 0.00 | 67 | 1015.6 |
| 20260503052522 | 40 | 239 | 0.0 | 4.0 | 0.00 | 0.00 | 0.00 | 67 | 1015.7 |
| 20260503052003 | 40 | 239 | 1.0 | 2.0 | 0.00 | 0.00 | 0.00 | 67 | 1015.7 |
| 20260503051546 | 40 | 239 | 0.0 | 2.0 | 0.00 | 0.00 | 0.00 | 67 | 1015.6 |
| 20260503051025 | 40 | 239 | 0.0 | 2.0 | 0.00 | 0.00 | 0.00 | 67 | 1015.6 |
| 20260503050505 | 40 | 239 | 0.0 | 4.0 | 0.00 | 0.00 | 0.00 | 67 | 1015.7 |
| 20260503050050 | 40 | 239 | 0.0 | 4.0 | 0.00 | 0.00 | 0.00 | 67 | 1015.7 |
| 20260503045511 | 40 | 239 | 0.0 | 4.0 | 0.00 | 0.00 | 0.00 | 67 | 1015.8 |
| 20260503045055 | 40 | 238 | 0.0 | 4.0 | 0.00 | 0.00 | 0.00 | 68 | 1015.7 |
| 20260503044535 | 40 | 238 | 0.0 | 4.0 | 0.00 | 0.00 | 0.00 | 68 | 1015.8 |
| 20260503044014 | 40 | 238 | 0.0 | 4.0 | 0.00 | 0.00 | 0.00 | 68 | 1015.9 |
| 20260503043558 | 40 | 238 | 0.0 | 1.0 | 0.00 | 0.00 | 0.00 | 69 | 1015.9 |
| 20260503043039 | 40 | 238 | 0.0 | 6.0 | 0.00 | 0.00 | 0.00 | 69 | 1016.0 |
| 20260503042519 | 40 | 238 | 1.0 | 6.0 | 0.00 | 0.00 | 0.00 | 69 | 1016.1 |
| 20260503042104 | 40 | 240 | 0.0 | 2.0 | 0.00 | 0.00 | 0.00 | 70 | 1016.0 |
| 20260503041543 | 40 | 240 | 0.0 | 4.0 | 0.00 | 0.00 | 0.00 | 70 | 1016.0 |
| 20260503041022 | 40 | 239 | 0.0 | 4.0 | 0.00 | 0.00 | 0.00 | 71 | 1016.0 |
| 20260503040502 | 40 | 239 | 0.0 | 4.0 | 0.00 | 0.00 | 0.00 | 71 | 1016.0 |
| 20260503040047 | 40 | 239 | 0.0 | 4.0 | 0.00 | 0.00 | 0.00 | 71 | 1016.0 |
| 20260503035509 | 40 | 241 | 0.0 | 4.0 | 0.00 | 0.00 | 0.00 | 72 | 1016.0 |
| 20260503035053 | 40 | 241 | 0.0 | 4.0 | 0.00 | 0.00 | 0.00 | 73 | 1016.0 |
| 20260503034533 | 40 | 241 | 0.0 | 2.0 | 0.00 | 0.00 | 0.00 | 73 | 1016.0 |
| 20260503034013 | 40 | 241 | 1.0 | 2.0 | 0.00 | 0.00 | 0.00 | 73 | 1016.1 |
| 20260503033556 | 41 | 241 | 0.0 | 0.0 | 0.00 | 0.00 | 0.00 | 73 | 1016.1 |
| 20260503033052 | 41 | 241 | 0.0 | 1.0 | 0.00 | 0.00 | 0.00 | 72 | 1016.2 |
| 20260503032517 | 41 | 241 | 0.0 | 1.0 | 0.00 | 0.00 | 0.00 | 71 | 1016.1 |
| 20260503032100 | 41 | 241 | 0.0 | 0.0 | 0.00 | 0.00 | 0.00 | 71 | 1016.2 |
| 20260503031541 | 41 | 241 | 0.0 | 2.0 | 0.00 | 0.00 | 0.00 | 71 | 1016.3 |
| 20260503031022 | 41 | 241 | 0.0 | 2.0 | 0.00 | 0.00 | 0.00 | 70 | 1016.2 |
| 20260503030501 | 42 | 241 | 0.0 | 1.0 | 0.00 | 0.00 | 0.00 | 69 | 1016.3 |
| 20260503030027 | 42 | 241 | 0.0 | 1.0 | 0.00 | 0.00 | 0.00 | 69 | 1016.2 |
| 20260503025505 | 42 | 241 | 0.0 | 2.0 | 0.00 | 0.00 | 0.00 | 68 | 1016.3 |
| 20260503025049 | 42 | 241 | 0.0 | 2.0 | 0.00 | 0.00 | 0.00 | 68 | 1016.3 |
| 20260503024529 | 42 | 241 | 0.0 | 1.0 | 0.00 | 0.00 | 0.00 | 68 | 1016.2 |
| 20260503024010 | 42 | 241 | 0.0 | 1.0 | 0.00 | 0.00 | 0.00 | 67 | 1016.2 |
| 20260503023558 | 42 | 241 | 0.0 | 2.0 | 0.00 | 0.00 | 0.00 | 67 | 1016.2 |
| 20260503023044 | 42 | 241 | 0.0 | 2.0 | 0.00 | 0.00 | 0.00 | 67 | 1016.3 |
| 20260503022513 | 43 | 241 | 0.0 | 2.0 | 0.00 | 0.00 | 0.00 | 68 | 1016.4 |
| 20260503022057 | 43 | 241 | 0.0 | 2.0 | 0.00 | 0.00 | 0.00 | 68 | 1016.4 |
| 20260503021538 | 43 | 241 | 0.0 | 2.0 | 0.00 | 0.00 | 0.00 | 67 | 1016.5 |
| 20260503021018 | 43 | 241 | 0.0 | 4.0 | 0.00 | 0.00 | 0.00 | 67 | 1016.5 |
| 20260503020603 | 43 | 241 | 1.0 | 4.0 | 0.00 | 0.00 | 0.00 | 67 | 1016.5 |
| 20260503020042 | 43 | 241 | 0.0 | 4.0 | 0.00 | 0.00 | 0.00 | 67 | 1016.5 |
| 20260503015507 | 43 | 241 | 0.0 | 2.0 | 0.00 | 0.00 | 0.00 | 67 | 1016.5 |
| 20260503015048 | 43 | 241 | 0.0 | 2.0 | 0.00 | 0.00 | 0.00 | 67 | 1016.5 |
| 20260503014527 | 42 | 241 | 0.0 | 2.0 | 0.00 | 0.00 | 0.00 | 67 | 1016.5 |
| 20260503014007 | 42 | 241 | 0.0 | 2.0 | 0.00 | 0.00 | 0.00 | 67 | 1016.5 |
| 20260503013551 | 42 | 241 | 0.0 | 2.0 | 0.00 | 0.00 | 0.00 | 67 | 1016.5 |
| 20260503013032 | 42 | 241 | 0.0 | 2.0 | 0.00 | 0.00 | 0.00 | 67 | 1016.5 |
| 20260503012512 | 42 | 241 | 0.0 | 4.0 | 0.00 | 0.00 | 0.00 | 67 | 1016.4 |
| 20260503012055 | 43 | 241 | 0.0 | 4.0 | 0.00 | 0.00 | 0.00 | 66 | 1016.4 |
| 20260503011549 | 43 | 241 | 0.0 | 2.0 | 0.00 | 0.00 | 0.00 | 66 | 1016.4 |
| 20260503011019 | 43 | 241 | 0.0 | 4.0 | 0.00 | 0.00 | 0.00 | 65 | 1016.4 |
| 20260503010559 | 43 | 241 | 0.0 | 5.0 | 0.00 | 0.00 | 0.00 | 65 | 1016.4 |
| 20260503010029 | 43 | 241 | 2.0 | 5.0 | 0.00 | 0.00 | 0.00 | 64 | 1016.4 |
| 20260503005606 | 43 | 237 | 0.0 | 5.0 | 0.00 | 0.00 | 0.00 | 64 | 1016.5 |
| 20260503005045 | 43 | 239 | 1.0 | 4.0 | 0.00 | 0.00 | 0.00 | 63 | 1016.5 |
| 20260503004524 | 43 | 239 | 0.0 | 4.0 | 0.00 | 0.00 | 0.00 | 62 | 1016.4 |
| 20260503004007 | 43 | 239 | 0.0 | 4.0 | 0.00 | 0.00 | 0.00 | 63 | 1016.4 |
| 20260503003548 | 43 | 239 | 0.0 | 4.0 | 0.00 | 0.00 | 0.00 | 64 | 1016.3 |
| 20260503003028 | 43 | 239 | 0.0 | 4.0 | 0.00 | 0.00 | 0.00 | 64 | 1016.3 |
| 20260503002514 | 43 | 239 | 0.0 | 5.0 | 0.00 | 0.00 | 0.00 | 64 | 1016.3 |
| 20260503002052 | 43 | 239 | 0.0 | 8.0 | 0.00 | 0.00 | 0.00 | 65 | 1016.2 |
| 20260503001533 | 43 | 237 | 4.0 | 9.0 | 0.00 | 0.00 | 0.00 | 64 | 1016.2 |
| 20260503001013 | 44 | 239 | 5.0 | 9.0 | 0.00 | 0.00 | 0.00 | 66 | 1016.2 |
| 20260503000556 | 44 | 254 | 2.0 | 6.0 | 0.00 | 0.00 | 0.00 | 66 | 1016.2 |
| 20260503000049 | 44 | 250 | 2.0 | 6.0 | 0.00 | 0.00 | 0.00 | 66 | 1016.2 |
| 20260502235603 | 44 | 275 | 1.0 | 6.0 | 0.00 | 0.00 | 0.00 | 66 | 1016.2 |
| 20260502235039 | 44 | 269 | 0.0 | 5.0 | 0.00 | 0.00 | 0.00 | 66 | 1016.2 |
| 20260502234519 | 44 | 269 | 2.0 | 5.0 | 0.00 | 0.00 | 0.00 | 66 | 1016.1 |
| 20260502234103 | 44 | 267 | 0.0 | 5.0 | 0.00 | 0.00 | 0.00 | 65 | 1016.2 |
| 20260502233544 | 44 | 267 | 1.0 | 5.0 | 0.00 | 0.00 | 0.00 | 66 | 1016.1 |
| 20260502233023 | 44 | 269 | 0.0 | 6.0 | 0.00 | 0.00 | 0.00 | 66 | 1016.2 |
| 20260502232504 | 44 | 268 | 1.0 | 6.0 | 0.00 | 0.00 | 0.00 | 65 | 1016.1 |
| 20260502232048 | 44 | 262 | 2.0 | 5.0 | 0.00 | 0.00 | 0.00 | 64 | 1016.1 |
| 20260502231527 | 44 | 261 | 1.0 | 6.0 | 0.00 | 0.00 | 0.00 | 64 | 1016.1 |
| 20260502231007 | 45 | 217 | 0.0 | 7.0 | 0.00 | 0.00 | 0.00 | 63 | 1016.0 |
| 20260502230552 | 45 | 256 | 1.0 | 5.0 | 0.00 | 0.00 | 0.00 | 63 | 1016.0 |
| 20260502230013 | 45 | 268 | 1.0 | 5.0 | 0.00 | 0.00 | 0.00 | 62 | 1016.0 |
| 20260502225556 | 45 | 268 | 1.0 | 5.0 | 0.00 | 0.00 | 0.00 | 62 | 1016.0 |
| 20260502225037 | 45 | 271 | 1.0 | 7.0 | 0.00 | 0.00 | 0.00 | 61 | 1016.0 |
| 20260502224517 | 45 | 326 | 0.0 | 9.0 | 0.00 | 0.00 | 0.00 | 59 | 1016.0 |
| 20260502224101 | 45 | 277 | 3.0 | 9.0 | 0.00 | 0.00 | 0.00 | 59 | 1016.0 |
| 20260502223540 | 45 | 278 | 1.0 | 7.0 | 0.00 | 0.00 | 0.00 | 58 | 1016.0 |
| 20260502223022 | 45 | 331 | 1.0 | 7.0 | 0.00 | 0.00 | 0.00 | 58 | 1015.9 |
| 20260502222501 | 45 | 296 | 1.0 | 9.0 | 0.00 | 0.00 | 0.00 | 57 | 1015.9 |
| 20260502222048 | 45 | 299 | 4.0 | 9.0 | 0.00 | 0.00 | 0.00 | 56 | 1015.9 |
| 20260502221524 | 45 | 295 | 1.0 | 7.0 | 0.00 | 0.00 | 0.00 | 57 | 1015.9 |
| 20260502221004 | 45 | 237 | 3.0 | 7.0 | 0.00 | 0.00 | 0.00 | 56 | 1015.8 |
| 20260502220548 | 45 | 329 | 0.0 | 8.0 | 0.00 | 0.00 | 0.00 | 57 | 1015.9 |
| 20260502220030 | 45 | 290 | 3.0 | 8.0 | 0.00 | 0.00 | 0.00 | 57 | 1015.9 |
| 20260502215555 | 45 | 227 | 1.0 | 6.0 | 0.00 | 0.00 | 0.00 | 57 | 1015.9 |
| 20260502215033 | 46 | 277 | 3.0 | 6.0 | 0.00 | 0.00 | 0.00 | 57 | 1015.9 |
| 20260502214513 | 46 | 229 | 3.0 | 6.0 | 0.00 | 0.00 | 0.00 | 56 | 1015.9 |
| 20260502214057 | 46 | 264 | 0.0 | 7.0 | 0.00 | 0.00 | 0.00 | 57 | 1015.8 |
| 20260502213537 | 46 | 281 | 2.0 | 7.0 | 0.00 | 0.00 | 0.00 | 56 | 1015.8 |